FW7994 Weather Reports


time (UTC)temp
C
wind
direction
speed
KPH
gust
KPH
rain 1hr
cm
rain 24hr
cm
rain mn
cm
humidity
%
barometer
mb
20260509013016 16 0.0 0.0 0.00 0.28 0.10 32 1012.7
20260509012021 16 0.0 0.0 0.00 0.28 0.10 35 1012.6
20260509011016 16 0.0 0.0 0.00 0.30 0.10 40 1012.5
20260509010016 16 0.0 0.0 0.00 0.33 0.10 43 1012.3
20260509005016 16 0.0 0.0 0.00 0.36 0.10 47 1012.3
20260509004056 16 0.0 0.0 0.00 0.38 0.10 51 1012.3
20260509003016 17 0.0 0.0 0.00 0.41 0.10 55 1012.4
20260509002016 17 0.0 0.0 0.00 0.43 0.10 59 1012.6
20260509001016 17 0.0 0.0 0.00 0.46 0.10 62 1012.3
20260509000016 17 0.0 0.0 0.00 0.46 0.10 64 1012.2
20260508235016 17 0.0 0.0 0.00 0.48 0.10 66 1012.0
20260508234016 18 0.0 0.0 0.00 0.51 0.10 66 1011.9
20260508233016 18 0.0 0.0 0.00 0.51 0.10 63 1011.9
20260508232036 18 0.0 0.0 0.00 0.53 0.10 66 1012.1
20260508231036 18 0.0 0.0 0.00 0.56 0.10 65 1012.1
20260508230016 19 0.0 0.0 0.00 0.58 0.10 66 1012.1
20260508225016 19 0.0 0.0 0.00 0.61 0.10 65 1012.2
20260508224016 20 0.0 0.0 0.00 0.66 0.10 64 1012.2
20260508223016 20 0.0 0.0 0.00 0.69 0.10 66 1012.3
20260508222016 20 0.0 0.0 0.00 0.71 0.10 66 1012.2
20260508221016 20 0.0 0.0 0.00 0.76 0.10 66 1012.1
20260508220016 20 0.0 0.0 0.00 0.79 0.10 67 1012.3
20260508215016 20 0.0 0.0 0.00 0.84 0.10 67 1012.2
20260508214036 20 0.0 0.0 0.00 0.89 0.10 67 1012.2
20260508213016 21 0.0 0.0 0.00 0.94 0.10 66 1012.4
20260508212016 21 0.0 0.0 0.00 0.99 0.10 62 1012.4
20260508211036 21 0.0 0.0 0.00 1.04 0.10 60 1012.4
20260508210016 21 0.0 1.6 0.00 1.12 0.10 61 1012.3
20260508205036 21 0.0 0.0 0.00 1.17 0.10 55 1012.3
20260508204016 22 0.0 0.0 0.00 1.24 0.10 63 1012.4
20260508203016 22 0.0 3.2 0.00 1.30 0.10 53 1012.6
20260508202016 22 0.0 1.6 0.00 1.35 0.10 55 1012.8
20260508201036 22 248 1.6 4.8 0.00 1.42 0.10 54 1012.9
20260508200015 22 0.0 1.6 0.00 1.47 0.10 56 1012.8
20260508195017 22 0.0 3.2 0.00 1.55 0.10 53 1012.9
20260508194016 22 0.0 3.2 0.00 1.60 0.10 58 1013.0
20260508193016 22 0.0 1.6 0.00 1.68 0.10 60 1013.2
20260508192016 22 225 1.6 8.0 0.00 1.75 0.10 59 1013.4
20260508191036 22 0.0 1.6 0.00 1.80 0.10 50 1013.6
20260508190036 23 0.0 3.2 0.00 1.88 0.10 51 1013.7
20260508185056 23 0.0 3.2 0.00 1.93 0.10 50 1013.8
20260508184016 22 270 1.6 8.0 0.00 2.01 0.10 48 1013.9
20260508183036 22 225 1.6 6.4 0.00 2.08 0.10 52 1014.3
20260508182015 22 0.0 3.2 0.00 2.18 0.10 55 1014.2
20260508181016 22 0.0 6.4 0.00 2.26 0.10 52 1014.2
20260508180015 22 293 1.6 8.0 0.00 2.36 0.10 49 1014.4
20260508175015 22 0.0 1.6 0.00 2.44 0.10 53 1014.7
20260508174015 22 0.0 1.6 0.00 2.51 0.10 58 1014.7
20260508173015 21 338 3.2 9.7 0.00 2.59 0.10 52 1014.6
20260508172016 21 0.0 1.6 0.00 2.64 0.10 60 1014.8
20260508171015 21 0.0 1.6 0.00 2.72 0.10 56 1015.0
20260508170015 21 225 3.2 12.9 0.00 2.77 0.10 53 1015.2
20260508165035 21 0.0 1.6 0.00 2.82 0.10 56 1015.4
20260508164015 21 248 1.6 4.8 0.00 2.90 0.10 55 1015.4
20260508163015 21 0.0 3.2 0.00 2.95 0.10 54 1015.7
20260508162015 20 0.0 3.2 0.00 3.00 0.10 55 1015.8
20260508161015 20 0.0 6.4 0.00 3.07 0.10 52 1015.8
20260508160015 20 0.0 4.8 0.00 3.12 0.10 59 1015.9
20260508155015 20 0.0 3.2 0.00 3.20 0.10 57 1016.1
20260508154015 20 0.0 4.8 0.00 3.28 0.10 59 1016.3
20260508153035 20 0.0 0.0 0.00 3.35 0.10 62 1016.5
20260508152015 19 0.0 1.6 0.00 3.43 0.10 62 1016.4
20260508151015 18 0.0 0.0 0.00 3.48 0.10 63 1016.4
20260508150015 18 0.0 3.2 0.00 3.56 0.10 67 1016.2
20260508145015 18 0.0 4.8 0.00 3.63 0.10 66 1016.1
20260508144015 17 0.0 3.2 0.00 3.71 0.10 67 1016.1
20260508143015 17 203 1.6 6.4 0.00 3.81 0.10 67 1016.2
20260508142016 16 0.0 1.6 0.00 3.89 0.10 62 1016.2
20260508141015 16 0.0 3.2 0.00 3.96 0.10 52 1016.4
20260508140015 16 0.0 1.6 0.00 4.04 0.10 36 1016.3
20260508135015 15 0.0 0.0 0.00 4.11 0.10 32 1016.3
20260508134015 15 0.0 0.0 0.00 4.19 0.10 24 1016.4
20260508133015 14 0.0 1.6 0.00 4.29 0.10 21 1016.3
20260508132015 13 0.0 0.0 0.00 4.37 0.10 18 1016.2
20260508131015 13 0.0 0.0 0.00 4.45 0.10 16 1016.0
20260508130017 13 0.0 1.6 0.00 4.52 0.10 14 1015.9
20260508125037 13 0.0 0.0 0.00 4.62 0.10 12 1015.7
20260508124017 12 0.0 0.0 0.00 4.70 0.10 13 1015.4
20260508123037 12 0.0 0.0 0.00 4.78 0.10 14 1015.3
20260508122016 12 0.0 0.0 0.00 4.88 0.10 14 1015.3
20260508121016 11 0.0 0.0 0.00 4.95 0.10 15 1015.2
20260508120017 11 0.0 0.0 0.00 5.00 0.10 16 1015.1
20260508115017 11 0.0 0.0 0.00 5.08 0.10 17 1015.0
20260508114017 11 0.0 0.0 0.00 5.16 0.10 17 1014.9
20260508113016 11 0.0 0.0 0.00 5.21 0.10 18 1014.7
20260508112017 10 0.0 0.0 0.00 5.26 0.10 18 1014.3
20260508111016 10 0.0 0.0 0.00 5.28 0.10 19 1014.0
20260508110017 11 0.0 0.0 0.00 5.31 0.10 18 1013.8
20260508105016 11 0.0 0.0 0.00 5.31 0.10 18 1013.8
20260508104016 11 0.0 0.0 0.00 5.33 0.10 18 1013.5
20260508103036 11 0.0 0.0 0.00 5.36 0.10 18 1013.4
20260508102036 11 0.0 0.0 0.00 5.36 0.10 18 1013.3
20260508101016 11 0.0 0.0 0.03 5.38 0.10 18 1013.1
20260508100037 11 0.0 0.0 0.03 5.41 0.10 19 1012.8
20260508095016 11 0.0 0.0 0.03 5.46 0.10 20 1012.8
20260508094036 11 0.0 0.0 0.03 5.49 0.10 20 1012.8
20260508093018 11 0.0 0.0 0.03 5.51 0.10 20 1012.8
20260508092021 11 0.0 0.0 0.03 5.56 0.10 21 1012.7
20260508091017 11 0.0 0.0 0.00 5.56 0.08 22 1012.5
20260508090016 11 0.0 0.0 0.00 5.61 0.08 22 1012.5
20260508085017 11 0.0 0.0 0.00 5.66 0.08 23 1012.3
20260508084016 11 0.0 0.0 0.00 5.71 0.08 23 1012.4
20260508083016 11 0.0 0.0 0.00 5.77 0.08 24 1012.4
20260508082036 11 0.0 0.0 0.00 5.82 0.08 25 1012.4
20260508081016 11 0.0 0.0 0.00 5.87 0.08 26 1012.4
20260508080016 11 0.0 0.0 0.00 5.92 0.08 25 1012.2
20260508075016 11 0.0 0.0 0.03 5.97 0.08 26 1012.2
20260508074016 11 0.0 0.0 0.03 6.05 0.08 26 1012.4
20260508073036 11 0.0 0.0 0.03 6.12 0.08 27 1012.2
20260508072016 12 0.0 0.0 0.03 6.20 0.08 27 1012.1
20260508071016 12 0.0 0.0 0.03 6.27 0.08 27 1012.1
20260508070036 12 0.0 0.0 0.03 6.32 0.08 27 1012.0
20260508065016 12 0.0 0.0 0.00 6.35 0.05 27 1012.0
20260508063036 12 0.0 0.0 0.03 6.45 0.05 31 1011.8
20260508062016 12 0.0 0.0 0.03 6.50 0.05 32 1011.7
20260508061016 12 0.0 0.0 0.03 6.58 0.05 33 1011.7
20260508060016 12 0.0 0.0 0.03 6.63 0.05 35 1011.8
20260508055036 12 0.0 0.0 0.03 6.68 0.05 37 1012.1
20260508054036 13 0.0 0.0 0.03 6.76 0.05 35 1012.2
20260508053016 13 0.0 0.0 0.03 6.81 0.03 33 1012.0
20260508052016 13 0.0 0.0 0.03 6.88 0.03 34 1012.1
20260508051036 13 0.0 0.0 0.03 6.96 0.03 33 1012.1
20260508050016 13 0.0 0.0 0.03 7.04 0.03 36 1012.0
20260508045036 13 0.0 0.0 0.05 7.11 0.03 34 1011.8
20260508044016 13 0.0 0.0 0.05 7.19 0.03 35 1011.8
20260508043016 13 0.0 0.0 0.03 7.24 0.00 39 1011.7
20260508042016 14 0.0 0.0 0.05 7.34 0.00 38 1011.7
20260508041056 14 0.0 0.0 0.05 7.42 0.00 40 1011.6
20260508040016 14 0.0 0.0 0.05 7.52 7.52 42 1011.4
20260508035015 15 0.0 0.0 0.05 7.59 7.49 43 1011.5
20260508034015 15 0.0 0.0 0.05 7.70 7.49 44 1011.5
20260508033015 15 0.0 0.0 0.05 7.82 7.49 43 1011.4
20260508032035 15 0.0 0.0 0.05 7.90 7.47 44 1011.4
20260508031037 16 0.0 0.0 0.05 8.03 7.47 40 1011.3
20260508030017 16 0.0 0.0 0.08 8.15 7.47 36 1011.2
20260508025057 16 0.0 0.0 0.05 8.23 7.44 37 1011.1
20260508024017 16 0.0 0.0 0.08 8.33 7.44 32 1010.9
20260508023017 17 0.0 0.0 0.10 8.46 7.44 26 1010.9
20260508022017 17 0.0 0.0 0.08 8.53 7.42 24 1010.5
20260508021017 17 0.0 0.0 0.10 8.66 7.42 28 1010.5
20260508020017 18 0.0 0.0 0.10 8.76 7.39 32 1010.2
20260508015017 18 0.0 0.0 0.13 8.92 7.39 33 1010.0
20260508014057 18 0.0 0.0 0.13 9.02 7.37 34 1009.7